Weather History for KF05 - June, 2013

Change the Weather History Date:

Sunday, June 16, 2013

  Actual Average (KLTS) Record (KLTS)
Temperature  
Mean Temperature 84 °F -  
Max Temperature 98 °F 89 °F 106 °F (2011)
Min Temperature 70 °F 66 °F 59 °F (1998)
Cooling Degree Days 19    
Growing Degree Days 34 (Base 50)    
Moisture  
Dew Point 64 °F    
Average Humidity 52    
Maximum Humidity 84    
Minimum Humidity 30    
Precipitation  
Precipitation 0.00 in - - ()
Sea Level Pressure  
Sea Level Pressure 29.94 in    
Wind  
Wind Speed 8 mph (South)    
Max Wind Speed 17 mph    
Max Gust Speed 23 mph    
Visibility 10 miles    
Events Thunderstorm    
Averages and records for this station are not official NWS values.
T = Trace of Precipitation, MM = Missing Value Source: NWS Daily Summary

Daily Weather History Graph

Daily Weather History Graph

Search for Another Location

Airport or City:

Trip Planner

Search our weather history database for the weather conditions in past years. The results will help you decide how hot, cold, wet, or windy it might be!

Date:

Astronomy

Jun. 16, 2013 Rise Set
Actual Time 6:24 AM CDT 8:51 PM CDT
Civil Twilight 5:55 AM CDT 9:20 PM CDT
Nautical Twilight 5:19 AM CDT 9:56 PM CDT
Astronomical Twilight 4:39 AM CDT 10:36 PM CDT
Moon 1:43 PM CDT (6/16) 1:13 AM CDT (6/16)
Length of Visible Light 15h 24m
Length of Day
14h 26m
Waxing Crescent, 50% of the Moon is Illuminated
Jun 16
Waxing Crescent
Jun 16
First Quarter
Jun 23
Full
Jun 29
Last Quarter
Jul 8
New

Hourly Weather History & Observations

Time (CDT) Temp. Heat Index Dew Point Humidity Pressure Visibility Wind Dir Wind Speed Gust Speed Precip Events Conditions
12:15 AM 79.3 °F - 62.8 °F 57% 29.96 in 10.0 mi SSE 8.1 mph - N/A   Scattered Clouds
12:35 AM 79.2 °F - 62.8 °F 57% 29.96 in 10.0 mi SSE 8.1 mph - N/A   Clear
12:55 AM 78.6 °F - 63.0 °F 59% 29.95 in 10.0 mi SSE 10.4 mph - N/A   Clear
1:15 AM 78.4 °F - 63.3 °F 60% 29.94 in 10.0 mi SSE 12.7 mph - N/A   Clear
1:35 AM 78.1 °F - 63.5 °F 61% 29.94 in 10.0 mi SSE 10.4 mph - N/A   Clear
1:55 AM 77.7 °F - 64.0 °F 63% 29.93 in 10.0 mi SSE 11.5 mph - N/A   Clear
2:15 AM 77.2 °F - 64.4 °F 65% 29.92 in 10.0 mi SSE 11.5 mph - N/A   Clear
2:35 AM 77.0 °F - 64.4 °F 65% 29.93 in 10.0 mi SSE 9.2 mph - N/A   Clear
2:55 AM 76.6 °F - 64.4 °F 66% 29.93 in 10.0 mi SSE 9.2 mph - N/A   Clear
3:15 AM 76.3 °F - 64.0 °F 66% 29.94 in 10.0 mi SSE 8.1 mph - N/A   Clear
3:35 AM 75.6 °F - 64.2 °F 68% 29.95 in 10.0 mi SSE 6.9 mph - N/A   Clear
3:55 AM 74.8 °F - 64.4 °F 70% 29.95 in 10.0 mi South 5.8 mph - N/A   Clear
4:15 AM 73.9 °F - 64.6 °F 72% 29.96 in 10.0 mi South 3.5 mph - N/A   Clear
4:35 AM 73.6 °F - 64.6 °F 73% 29.96 in 10.0 mi Calm Calm - N/A   Clear
4:55 AM 73.6 °F - 64.9 °F 74% 29.96 in 10.0 mi SE 3.5 mph - N/A   Clear
5:15 AM 73.0 °F - 65.3 °F 77% 29.97 in 10.0 mi Calm Calm - N/A   Clear
5:35 AM 72.7 °F - 65.3 °F 78% 29.97 in 10.0 mi Calm Calm - N/A   Clear
5:55 AM 71.2 °F - 65.1 °F 81% 29.98 in 10.0 mi Calm Calm - N/A   Clear
6:15 AM 70.5 °F - 65.3 °F 83% 29.99 in 10.0 mi Calm Calm - N/A   Clear
6:35 AM 70.5 °F - 65.3 °F 83% 29.99 in 10.0 mi Calm Calm - N/A   Clear
6:55 AM 70.3 °F - 65.3 °F 84% 30.01 in 10.0 mi Calm Calm - N/A   Clear
7:15 AM 70.9 °F - 65.7 °F 83% 30.02 in 10.0 mi Calm Calm - N/A   Clear
7:35 AM 72.7 °F - 66.7 °F 82% 30.03 in 10.0 mi NE 4.6 mph - N/A   Scattered Clouds
7:55 AM 73.6 °F - 67.5 °F 81% 30.04 in 10.0 mi ENE 6.9 mph - N/A   Mostly Cloudy
8:15 AM 74.5 °F - 68.0 °F 80% 30.04 in 10.0 mi ENE 4.6 mph - N/A   Overcast
8:35 AM 75.7 °F - 68.0 °F 77% 30.04 in 10.0 mi Calm Calm - N/A   Overcast
8:55 AM 77.2 °F - 68.0 °F 73% 30.03 in 10.0 mi East 5.8 mph - N/A   Scattered Clouds
9:15 AM 78.8 °F - 68.0 °F 69% 30.03 in 10.0 mi SE 6.9 mph - N/A   Scattered Clouds
9:35 AM 81.0 °F 83.6 °F 67.6 °F 64% 30.03 in 10.0 mi South 6.9 mph - N/A   Scattered Clouds
9:55 AM 83.7 °F 86.2 °F 66.7 °F 57% 30.03 in 10.0 mi South 6.9 mph - N/A   Scattered Clouds
10:15 AM 85.1 °F 87.7 °F 66.7 °F 54% 30.03 in 10.0 mi South 9.2 mph - N/A   Scattered Clouds
10:35 AM 85.6 °F 88.2 °F 66.7 °F 53% 30.03 in 10.0 mi SSW 6.9 mph - N/A   Overcast
10:55 AM 86.4 °F 89.0 °F 66.9 °F 52% 30.02 in 10.0 mi SW 6.9 mph - N/A   Scattered Clouds
11:15 AM 87.1 °F 89.9 °F 67.1 °F 51% 30.01 in 10.0 mi South 10.4 mph - N/A   Unknown
11:35 AM 88.3 °F 91.2 °F 66.9 °F 49% 30.00 in 10.0 mi SSW 9.2 mph 16.1 mph N/A   Clear
12:15 PM 89.6 °F 92.2 °F 66.4 °F 46% 29.99 in 10.0 mi South 10.4 mph 17.3 mph N/A   Scattered Clouds
12:35 PM 90.7 °F 93.2 °F 65.8 °F 44% 29.98 in 10.0 mi SSW 9.2 mph - N/A   Clear
12:55 PM 91.6 °F 93.9 °F 65.3 °F 42% 29.97 in 10.0 mi South 12.7 mph 16.1 mph N/A   Clear
1:15 PM 92.7 °F 94.4 °F 64.6 °F 39% 29.96 in 10.0 mi South 10.4 mph 17.3 mph N/A   Scattered Clouds
1:35 PM 93.4 °F 95.2 °F 64.6 °F 38% 29.95 in 10.0 mi SSW 13.8 mph 21.9 mph N/A   Clear
1:55 PM 94.1 °F 96.4 °F 64.8 °F 38% 29.95 in 10.0 mi South 15.0 mph 23.0 mph N/A   Scattered Clouds
2:15 PM 95.0 °F 97.4 °F 65.1 °F 37% 29.94 in 10.0 mi SSW 13.8 mph 20.7 mph N/A   Scattered Clouds
2:35 PM 95.0 °F 97.4 °F 64.6 °F 37% 29.94 in 10.0 mi South 11.5 mph - N/A   Scattered Clouds
2:55 PM 95.7 °F 97.7 °F 64.4 °F 35% 29.93 in 10.0 mi SSW 11.5 mph 18.4 mph N/A   Scattered Clouds
3:15 PM 96.4 °F 98.4 °F 63.5 °F 34% 29.93 in 10.0 mi South 11.5 mph 18.4 mph N/A   Clear
3:35 PM 97.2 °F 99.1 °F 63.5 °F 33% 29.92 in 10.0 mi SSW 9.2 mph 19.6 mph N/A   Scattered Clouds
3:55 PM 97.5 °F 99.2 °F 63.3 °F 32% 29.91 in 10.0 mi South 13.8 mph - N/A   Scattered Clouds
4:15 PM 98.1 °F 99.6 °F 63.0 °F 31% 29.91 in 10.0 mi SSW 9.2 mph - N/A   Scattered Clouds
4:35 PM 98.4 °F 100.2 °F 62.6 °F 31% 29.91 in 10.0 mi SW 9.2 mph 12.7 mph N/A   Scattered Clouds
4:55 PM 98.1 °F 99.1 °F 62.1 °F 30% 29.90 in 10.0 mi SW 6.9 mph 18.4 mph N/A   Scattered Clouds
5:15 PM 97.9 °F 98.8 °F 61.9 °F 30% 29.89 in 10.0 mi South 8.1 mph 17.3 mph N/A   Clear
5:35 PM 97.3 °F 98.4 °F 62.1 °F 31% 29.88 in 10.0 mi SSW 10.4 mph - N/A   Clear
5:55 PM 97.3 °F 98.4 °F 62.1 °F 31% 29.88 in 10.0 mi SSW 10.4 mph - N/A   Clear
6:15 PM 97.2 °F 98.1 °F 61.9 °F 31% 29.87 in 10.0 mi SSW 10.4 mph 17.3 mph N/A   Clear
6:35 PM 97.2 °F 98.1 °F 62.1 °F 31% 29.87 in 10.0 mi SW 11.5 mph - N/A   Clear
6:55 PM 96.3 °F 97.2 °F 61.9 °F 32% 29.86 in 10.0 mi SSW 10.4 mph - N/A   Clear
7:15 PM 96.4 °F 97.4 °F 62.2 °F 32% 29.85 in 10.0 mi South 12.7 mph - N/A   Clear
7:35 PM 95.9 °F 96.6 °F 61.9 °F 32% 29.85 in 10.0 mi South 10.4 mph - N/A   Clear
7:55 PM 94.6 °F 95.5 °F 62.2 °F 34% 29.85 in 10.0 mi South 8.1 mph - N/A   Clear
8:15 PM 94.3 °F 95.3 °F 62.6 °F 35% 29.86 in 10.0 mi South 8.1 mph - N/A   Clear
8:35 PM 93.6 °F 94.6 °F 62.6 °F 36% 29.86 in 10.0 mi SSE 6.9 mph - N/A   Clear
8:55 PM 92.5 °F 93.3 °F 62.6 °F 37% 29.88 in 10.0 mi SSE 6.9 mph - N/A   Clear
9:15 PM 91.4 °F 92.4 °F 63.0 °F 39% 29.88 in 10.0 mi South 4.6 mph - N/A   Scattered Clouds
9:35 PM 90.9 °F 92.0 °F 63.7 °F 40% 29.88 in 10.0 mi South 3.5 mph - N/A   Scattered Clouds
9:55 PM 90.5 °F 92.2 °F 64.4 °F 42% 29.89 in 10.0 mi South 4.6 mph - N/A Thunderstorm Thunderstorm
10:15 PM 90.5 °F 92.2 °F 64.2 °F 42% 29.87 in 10.0 mi SSE 8.1 mph - N/A   Scattered Clouds
10:35 PM 90.5 °F 91.8 °F 64.0 °F 41% 29.86 in 10.0 mi SSE 12.7 mph - N/A   Scattered Clouds
10:55 PM 90.7 °F 92.1 °F 63.7 °F 41% 29.86 in 10.0 mi SSE 17.3 mph - N/A   Clear
11:15 PM 91.0 °F 92.2 °F 63.3 °F 40% 29.91 in 10.0 mi SE 9.2 mph - N/A   Scattered Clouds
11:35 PM 87.8 °F 88.8 °F 63.7 °F 44% 29.91 in 10.0 mi East 17.3 mph - N/A   Mostly Cloudy
11:55 PM 82.4 °F 83.7 °F 63.7 °F 53% 29.91 in 10.0 mi SE 10.4 mph 18.4 mph N/A   Scattered Clouds